TimePST,TemperatureF,Dew PointF,Humidity,Sea Level PressureIn,VisibilityMPH,Wind Direction,Wind SpeedMPH,Gust SpeedMPH,PrecipitationIn,Events,Conditions,WindDirDegrees,DateUTC
12:58 AM,41.0,30.0,65,30.09,10.0,SSW,3.5,-,N/A,,Clear,200,2012-11-21 08:58:00
1:58 AM,39.7,29.8,68,30.08,10.0,West,5.8,-,N/A,,Clear,270,2012-11-21 09:58:00
2:58 AM,41.0,31.3,68,30.08,10.0,SW,3.5,-,N/A,,Clear,230,2012-11-21 10:58:00
3:58 AM,39.0,29.5,69,30.08,10.0,East,1.2,-,N/A,,Clear,90,2012-11-21 11:58:00
4:58 AM,39.7,30.6,70,30.07,10.0,SSW,2.3,-,N/A,,Clear,200,2012-11-21 12:58:00
5:58 AM,36.0,27.3,71,30.08,10.0,West,8.1,-,N/A,,Clear,260,2012-11-21 13:58:00
6:58 AM,36.1,28.8,75,30.10,10.0,South,2.3,-,N/A,,Clear,190,2012-11-21 14:58:00
7:58 AM,42.6,30.9,63,30.10,10.0,East,3.5,-,N/A,,Clear,90,2012-11-21 15:58:00
8:58 AM,47.8,33.8,58,30.11,10.0,South,2.3,-,N/A,,Clear,190,2012-11-21 16:58:00
9:58 AM,53.6,33.6,47,30.10,10.0,NE,2.3,-,N/A,,Clear,40,2012-11-21 17:58:00
10:58 AM,57.2,33.6,41,30.09,10.0,Calm,Calm,-,N/A,,Clear,10,2012-11-21 18:58:00
11:58 AM,60.4,32.0,34,30.07,10.0,NE,1.2,-,N/A,,Clear,50,2012-11-21 19:58:00
12:58 PM,61.9,31.3,32,30.05,10.0,Variable,1.2,-,N/A,,Clear,0,2012-11-21 20:58:00
1:58 PM,64.0,30.7,29,30.03,10.0,SE,3.5,-,N/A,,Clear,140,2012-11-21 21:58:00
2:58 PM,63.3,30.9,30,30.02,10.0,East,5.8,-,N/A,,Clear,100,2012-11-21 22:58:00
3:58 PM,62.4,30.9,31,30.03,10.0,NE,3.5,-,N/A,,Clear,40,2012-11-21 23:58:00
4:58 PM,58.5,31.1,35,30.04,10.0,South,4.6,-,N/A,,Clear,180,2012-11-22 00:58:00
5:58 PM,52.2,31.5,45,30.05,10.0,West,9.2,-,N/A,,Clear,260,2012-11-22 01:58:00
6:58 PM,49.1,30.4,49,30.06,10.0,WSW,8.1,-,N/A,,Clear,240,2012-11-22 02:58:00
7:58 PM,46.6,29.5,51,30.08,10.0,West,8.1,-,N/A,,Clear,280,2012-11-22 03:58:00
8:58 PM,46.9,29.8,51,30.09,10.0,WSW,10.4,-,N/A,,Clear,250,2012-11-22 04:58:00
9:58 PM,45.1,29.3,54,30.09,10.0,West,10.4,-,N/A,,Clear,260,2012-11-22 05:58:00
10:58 PM,43.3,29.3,58,30.09,10.0,WSW,6.9,-,N/A,,Clear,250,2012-11-22 06:58:00
11:58 PM,41.5,29.1,61,30.10,10.0,SW,5.8,-,N/A,,Clear,230,2012-11-22 07:58:00